Location: Bohy
(49.9380°N, 13.5753°E)
Time: 16:48:29
(UTC+00:00)

SeaSat 1 - Pass Details

Date: 19 May 2025
Orbit: 738 x 740 km, 108.0° (Epoch: 17 June)

Event Time Altitude Azimuth Distance (km) Brightness Sun altitude
Exits shadow 19:57:04 - 113° (ESE) 2,327 4.4 -9.0°
Reaches altitude 10° 19:57:16 10° 112° (ESE) 2,249 4.4 -9.0°
Maximum altitude 20:01:41 35° 48° (NE) 1,189 3.5 -9.5°
Drops below altitude 10° 20:06:06 10° 344° (NNW) 2,261 6.1 -10.0°
Sets 20:08:31 0° 335° (NNW) 3,188 7.4 -10.3°
